Simultaneous Nadir Overpasses (SNOs) Predictions

Prediction of SNOs between AQUA and NOAA-19 Satellite Orbit:

Table of predicted SNOs for the next 14.0 days since TLE Epoch: 9/13/2014
Index Date (AQUA) Time (AQUA) Lat,Lon (AQUA) SZA (AQUA ) Date (NOAA-19) Time (NOAA-19) Lat,Lon (NOAA-19) SZA (NOAA-19 ) Distance(km) Time Diff (sec)
1 09/13/2014 12:21:00 78.18, -24.63 75.03 09/13/2014 12:20:21 78.19, -24.74 75.06 2.64 39
2 09/13/2014 13:10:15 -77.71, 145.16 105.55 09/13/2014 13:11:07 -77.71, 145.12 105.56 1.16 52
3 09/15/2014 17:05:18 78.34, -96.47 76.06 09/15/2014 17:04:10 78.35, -96.56 76.09 2.21 68
4 09/15/2014 17:54:32 -77.82, 73.59 104.58 09/15/2014 17:54:54 -77.81, 73.69 104.60 2.51 22
5 09/17/2014 22:38:50 -77.97, 1.89 103.57 09/17/2014 22:38:43 -77.96, 2.01 103.59 2.92 7
6 09/20/2014 03:23:10 -78.22, -70.36 102.42 09/20/2014 03:22:35 -78.22, -70.36 102.41 0.30 35
7 09/20/2014 04:12:26 77.73, 99.51 77.00 09/20/2014 04:13:29 77.73, 99.50 76.98 0.29 63
8 09/22/2014 08:07:26 -78.32,-141.92 101.45 09/22/2014 08:06:23 -78.32,-141.91 101.43 0.43 63
9 09/22/2014 08:56:42 77.84, 27.97 77.97 09/22/2014 08:57:17 77.83, 28.06 77.95 2.54 35
10 09/24/2014 13:40:59 78.03, -43.91 79.04 09/24/2014 13:41:07 78.02, -43.84 79.03 1.84 8
11 09/26/2014 18:25:17 78.28,-116.15 80.19 09/26/2014 18:24:59 78.28,-116.25 80.21 2.43 18




NCC Satellite Simultaneous Nadir Overpasses (SNOs) Prediction Service
